Location: Barcelona
(41.3830°N, 2.1830°E)
Time: 04:33:26
(UTC+01:00)

ISS - Pass Details

Date: 14 November 2019
Orbit: 412 x 421 km, 51.6° (Epoch: 12 November)

Event Time Altitude Azimuth Distance (km) Brightness Sun altitude
Exits shadow 05:02:38 12° 130° (SE) 1,397 -0.6 -29.2°
Drops below altitude 10° 05:02:52 10° 130° (SE) 1,494 -0.4 -29.1°
Sets 05:04:57 0° 129° (SE) 2,353 0.7 -28.7°
